Regional Weather Roundup
Issued by NWS

Home | Current Version | Previous Version | Text Only | Print | Product List | Glossary Off
Versions: 1 2 3 4 5 6 7 8 9 10 11 12 13 14 15 16 17 18 19 20 21 22 23 24 25 26 27 28 29 30 31 32 33 34 35 36 37 38 39 40 41 42 43 44 45 46 47 48 49 50

000
ASUS45 KCYS 260010
RWRWY

WYOMING REGIONAL WEATHER ROUNDUP
NATIONAL WEATHER SERVICE CHEYENNE WY
600 PM MDT FRI JUL 25 2014

NOTE:  "FAIR" INDICATES FEW OR NO CLOUDS BELOW 12,000 FEET
WITH NO SIGNIFICANT WEATHER AND/OR OBSTRUCTIONS TO VISIBILITY.

WYZ001-260100-
YELLOWSTONE NATIONAL PARK

CITY           SKY/WX    TMP DP  RH WIND       PRES   REMARKS
LK YELLOWSTONE   N/A     68  12  11 VRB7      30.25R
6HR MIN TEMP:  64; 6HR MAX TEMP:  71;

W YELLOWSTONE  NOT AVBL

$$
WYZ002>013-054>058-071-098>099-260100-
NORTHERN WYOMING

CITY           SKY/WX    TMP DP  RH WIND       PRES   REMARKS
JACKSON        SUNNY     79  25  13 SW16G22   30.13F
CODY           NOT AVBL
GREYBULL       SUNNY     92  25   9 VRB3      29.83F
6HR MIN TEMP:  80; 6HR MAX TEMP:  93;

WORLAND        SUNNY     93  27   9 N6        29.85S
6HR MIN TEMP:  79; 6HR MAX TEMP:  94;

SHERIDAN       SUNNY     89  46  22 N5        29.86S
6HR MIN TEMP:  79; 6HR MAX TEMP:  90;

BUFFALO        SUNNY     87  42  20 N14       29.93S
6HR MIN TEMP:  79; 6HR MAX TEMP:  91;

GILLETTE       MOSUNNY   91  42  18 N14G23    29.86R
6HR MIN TEMP:  79; 6HR MAX TEMP:  94;

HULETT         FAIR      81  50  34 MISG      29.91
NEWCASTLE      FAIR      88  41  19 SE10      29.88

$$
WYZ014>020-022>026-101>103-260100-
CENTRAL WYOMING

CITY           SKY/WX    TMP DP  RH WIND       PRES   REMARKS
BIG PINEY      SUNNY     83  29  14 W17       30.17S
6HR MIN TEMP:  77; 6HR MAX TEMP:  86;

PINEDALE       CLEAR     79  28  15 W20G31    30.17S
DUBOIS         FAIR      77  21  12 NW23G38   30.14S
LANDER         SUNNY     92  22   8 W17G29    29.96F
6HR MIN TEMP:  80; 6HR MAX TEMP:  94;

RIVERTON       SUNNY     92  24   8 W18G28    29.96F
6HR MIN TEMP:  80; 6HR MAX TEMP:  94;

CASPER         SUNNY     94  26   9 NW18G29   29.93S
6HR MIN TEMP:  88; 6HR MAX TEMP:  97;

DOUGLAS        MOSUNNY   89  52  28 SE10      29.91F
6HR MIN TEMP:  81; 6HR MAX TEMP:  93;


$$
WYZ021-027>030-104>119-260100-
SOUTHERN WYOMING

CITY           SKY/WX    TMP DP  RH WIND       PRES   REMARKS
EVANSTON       SUNNY     83  33  16 W23G30    30.19S
6HR MIN TEMP:  81; 6HR MAX TEMP:  88;

KEMMERER       CLEAR    N/A N/A N/A W28G36    30.20S
FORT BRIDGER   FAIR      87  28  12 W26G37    30.20S
ROCK SPRINGS   MOSUNNY   88  24  10 W23G44    30.12R
6HR MIN TEMP:  83; 6HR MAX TEMP:  91;

DIXON          FAIR      85  32  14 W17G23    30.15F
RAWLINS        MOSUNNY   87  30  13 SW20G25   30.12F
6HR MIN TEMP:  79; 6HR MAX TEMP:  90;

SARATOGA       FAIR      79  43  27 SW12G21   30.17F
LARAMIE        PTSUNNY   70  47  43 MISG      30.21R
6HR MIN TEMP:  65; 6HR MAX TEMP:  87; 6HR PCP: TRACE;

CHEYENNE       LGT RAIN  80  51  36 NW9G28    30.12R
6HR MIN TEMP:  80; 6HR MAX TEMP:  86; 6HR PCP: TRACE;

TORRINGTON     PTSUNNY   77  61  57 SE23G36   29.94F
6HR MIN TEMP:  76; 6HR MAX TEMP:  88; 6HR PCP:  0.02;

PINE BLUFFS    FAIR      81  55  41 SE18G29   30.04R

$$


USA.gov is the U.S. government's official web portal to all federal, state and local government web resources and services.